{"data":{"norad_id":39455,"intl_designator":"2013-068A","name":"SHIYAN-5 (SY-5)","alt_names":[],"object_type":"PAYLOAD","status":"ACTIVE","operator":null,"country":"PRC","launch_date":"2013-11-25","launch_site_code":"JSC","launch_vehicle":null,"mission":null,"orbit_class":"UNKNOWN","rcs_meters":1.3254,"size_class":null,"mass_kg":null,"dimensions":null,"purposes":[],"wikipedia_slug":null,"has_3d_model":false,"image_url":null,"decayed_at":null,"tle_current":{"epoch":"2026-05-25T03:11:51.752832Z","epoch_age_seconds":56683,"freshness":"FRESH","line1":"1 39455U 13068A   26145.13323788  .00000214  00000+0  74970-4 0  9994","line2":"2 39455  98.0754  17.4701 0014744  19.3420 340.8328 14.43667309658303","mean_motion":14.43667309,"eccentricity":0.0014744,"inclination_deg":98.0754,"raan_deg":17.4701,"arg_perigee_deg":19.342,"mean_anomaly_deg":340.8328,"bstar":7.497e-5,"rev_number":65830,"period_min":99.74597270596,"perigee_km":735.90290350494,"apogee_km":756.91175983016,"semimajor_km":7124.5443316675,"source":"CELESTRAK","updated_at":"2026-05-25T13:37:55.404661Z"}}}